User: anonymous   Login
Location: Ebersheim
(48.3033°N, 7.4991°E)
Time: 07:35:59
(UTC+00:00)
Language:

STARLINK-1067 - Orbit

View from above orbital plane
View from above orbital plane
View from above satellite
View from above satellite

Ground track
Ground track

The orbit data is extracted from the following two-line orbital elements,

1 44771C 19074BL  20157.16523086  .00000446  00000-0  30567-4 0  1575
2 44771  53.0020 309.6908 0001228  98.9049 189.7735 15.05586784    12
Epoch (UTC): 05 June 2020 03:57:55
Eccentricity: 0.0001228
inclination: 53.0020°
perigee height: 549 km
apogee height: 550 km
right ascension of ascending node: 309.6908°
argument of perigee: 98.9049°
revolutions per day: 15.05586784
mean anomaly at epoch: 189.7735°
orbit number at epoch: 1

The dashed part of the orbit path shows where the satellite is in the earth's shadow,  

DLR